W4CAT-13 Weather Reports


time (UTC)temp
F
wind
direction
speed
knots
gust
knots
rain 1hr
in
rain 24hr
in
rain mn
in
humidity
%
barometer
mb
20260507024252 51 79 1.7 2.6 0.01 0.49 0.49 98 977.6
20260507022722 52 59 1.7 2.6 0.03 0.49 0.49 98 977.6
20260507021152 51 42 1.7 1.7 0.03 0.49 0.49 98 977.6
20260507015622 52 81 0.9 2.6 0.03 0.49 0.49 98 977.3
20260507014052 52 86 1.7 2.6 0.02 0.48 0.48 98 978.3
20260507012522 52 6 1.7 2.6 0.00 0.46 0.46 98 978.7
20260507010953 52 143 0.0 1.7 0.00 0.46 0.46 98 977.0
20260507005422 52 53 0.0 1.7 0.01 0.46 0.46 97 976.6
20260507003852 52 69 1.7 2.6 0.02 0.47 0.46 97 976.6
20260507002322 53 50 1.7 1.7 0.03 0.48 0.46 97 976.3
20260507000752 53 101 1.7 2.6 0.04 0.51 0.46 97 975.4
20260506235222 53 115 0.0 2.6 0.04 0.51 0.45 96 976.0
20260506233652 54 101 1.7 2.6 0.04 0.50 0.44 95 976.9
20260506232122 54 49 1.7 4.3 0.03 0.61 0.43 95 977.0
20260506230552 55 164 0.0 0.9 0.02 0.61 0.42 93 977.6
20260506225059 55 197 0.0 1.7 0.01 0.60 0.41 91 977.2
20260506225021 55 197 0.0 1.7 0.01 0.60 0.41 91 977.2
20260506223451 56 125 0.9 0.9 0.00 0.59 0.40 89 977.3
20260506221922 56 157 1.7 1.7 0.00 0.59 0.40 89 976.6
20260506220351 56 28 1.7 2.6 0.00 0.59 0.40 88 977.0
20260506214822 56 52 0.0 0.9 0.00 0.59 0.40 88 976.6
20260506213251 56 21 0.9 1.7 0.00 0.59 0.40 89 976.0
20260506211721 56 264 0.9 1.7 0.00 0.59 0.40 88 976.0
20260506210151 56 50 0.0 1.7 0.00 0.59 0.40 90 976.3
20260506204621 56 99 2.6 2.6 0.00 0.59 0.40 90 976.3
20260506203051 56 112 1.7 2.6 0.00 0.59 0.40 91 976.6
20260506201521 56 330 0.0 1.7 0.00 0.59 0.40 91 976.6
20260506195951 55 160 1.7 1.7 0.00 0.59 0.40 90 976.0
20260506194421 55 91 1.7 1.7 0.00 0.59 0.40 90 976.3
20260506192852 56 111 0.0 4.3 0.00 0.59 0.40 90 976.0
20260506191323 55 93 1.7 2.6 0.00 0.59 0.40 95 976.0
20260506185751 54 109 0.9 1.7 0.00 0.59 0.40 94 977.0
20260506184221 53 61 0.9 1.7 0.00 0.59 0.40 94 977.0
20260506182651 53 46 1.7 1.7 0.01 0.59 0.40 93 977.0
20260506181121 53 132 0.0 2.6 0.01 0.59 0.40 94 976.3
20260506175551 53 81 1.7 1.7 0.01 0.59 0.40 96 976.0
20260506174021 52 67 0.9 1.7 0.01 0.59 0.40 97 976.0
20260506172451 52 26 0.9 2.6 0.00 0.58 0.39 98 976.0
20260506170921 51 94 1.7 2.6 0.00 0.58 0.39 98 976.0
20260506165351 51 70 1.7 2.6 0.00 0.58 0.39 98 976.6
20260506163821 51 68 1.7 4.3 0.00 0.58 0.39 98 976.6
20260506162251 51 66 0.9 2.6 0.00 0.58 0.39 98 976.3
20260506160721 51 18 1.7 1.7 0.00 0.58 0.39 98 976.3
20260506155151 51 150 0.0 1.7 0.00 0.58 0.39 98 976.0
20260506153621 51 43 1.7 1.7 0.00 0.58 0.39 98 976.3
20260506152051 51 74 0.9 4.3 0.00 0.58 0.39 98 975.9
20260506150521 51 88 1.7 2.6 0.00 0.58 0.39 98 976.0
20260506144951 51 90 2.6 5.2 0.00 0.58 0.39 99 975.6
20260506143421 51 45 1.7 5.2 0.00 0.58 0.39 99 975.2
20260506141851 51 79 4.3 4.3 0.01 0.58 0.39 99 974.7
20260506140321 51 100 1.7 4.3 0.01 0.58 0.39 98 974.3
20260506134821 51 93 0.9 4.3 0.02 0.58 0.39 98 974.3
20260506133321 51 85 1.7 4.3 0.04 0.58 0.39 98 974.3
20260506131821 51 108 0.0 2.6 0.03 0.57 0.38 98 974.3
20260506130320 51 47 1.7 1.7 0.04 0.57 0.38 98 974.6
20260506124820 51 66 0.9 2.6 0.05 0.56 0.37 98 974.3
20260506123320 51 45 1.7 2.6 0.05 0.54 0.35 98 974.3
20260506121820 51 94 2.6 2.6 0.14 0.54 0.35 98 974.3
20260506120320 51 26 1.7 4.3 0.15 0.53 0.34 98 973.9
20260506114820 52 95 5.2 6.1 0.16 0.51 0.32 98 973.6
20260506113320 52 121 5.2 5.2 0.14 0.49 0.30 98 972.9
20260506111820 52 338 1.7 2.6 0.05 0.40 0.21 98 973.2
20260506110250 52 103 2.6 4.3 0.03 0.38 0.19 98 972.2
20260506104719 52 65 0.9 2.6 0.01 0.35 0.16 98 972.6
20260506103150 52 289 0.9 1.7 0.01 0.35 0.16 98 972.6
20260506101620 52 139 1.7 2.6 0.03 0.35 0.16 97 972.6
20260506100050 52 81 1.7 2.6 0.05 0.35 0.16 97 971.9
20260506094520 53 73 1.7 4.3 0.04 0.34 0.15 97 971.9